www.pogodaiklimat.ru

Погода и климат >> Архив погоды >> Норвегия >> Маяк Ferder


ПОГОДА на Маяке Ferder

  • Прогноз погоды на Маяке Ferder
  • Монитор погоды на Маяке Ferder

АРХИВ ПОГОДЫ на Маяке Ferder

Время (UTC), дата Ветер
(напр.,м/с)
 
Видим.   Явления Облачность Т
(С)
Тd
(С)
f
(%)
Тe
(С)
Тes
(С)
Комфортность P
(гПа)
Po
(гПа)
Тmin
(С)
Tmax
(С)
R
(мм)
R24
(мм)
S
(см)
16 15.03 В 5
{7}
н/о н/о +3.4 +2.1 91 -2 -2 984.2 983.3
17 15.03 В 6
{7}
н/о н/о +3.3 +2.1 92 -3 -3 984.3 983.4
18 15.03 СВ 6
{8}
н/о н/о +2.9 +1.6 91 -3 -3 984.9 984.0 +1.5 +3.5
19 15.03 СВ 6
{7}
н/о н/о +2.8 +1.3 90 -3 -3 985.4 984.5
20 15.03 СВ 6
{8}
н/о н/о +2.3 +1.0 91 -4 -4 986.0 985.1
21 15.03 С 6
{7}
н/о н/о +1.7 +0.6 92 -5 -5 986.7 985.8
22 15.03 С 6
{7}
н/о н/о +1.6 +0.6 93 -5 -5 987.4 986.5
23 15.03 С 5
{7}
н/о н/о +1.7 +0.7 93 -4 -4 988.0 987.1
00 16.03 С 5
{8}
н/о н/о +1.7 +0.8 94 -4 -4 988.8 987.9
01 16.03 С 4
{6}
н/о н/о +1.7 +0.7 93 -4 -4 989.5 988.6
02 16.03 СЗ 4
{5}
н/о н/о +1.8 +0.8 93 -3 -3 990.1 989.2
03 16.03 С 2
{4}
н/о н/о +1.7 +0.6 92 -2 -2 990.7 989.8
04 16.03 З 2
{3}
н/о н/о +1.7 +0.6 92 -2 -2 991.3 990.4
05 16.03 З 4
{5}
н/о н/о +1.7 +0.6 92 -3 -3 991.7 990.8
06 16.03 З 1
{6}
н/о н/о +1.8 +0.2 89 0 0 992.4 991.5 +1.5 +2.9
07 16.03 З 2
{4}
н/о н/о +2.0 +0.1 87 -1 -1 992.9 992.0
08 16.03 В 1
{3}
н/о н/о +2.3 +0.4 87 +1 +1 993.2 992.3
09 16.03 ЮЗ 2
{4}
н/о н/о +2.8 +0.7 86 -0 -0 994.1 993.2
10 16.03 В 1
{2}
н/о н/о +3.2 +0.9 85 +2 +2 994.3 993.4
11 16.03 В 2
{3}
н/о н/о +3.1 +0.7 84 0 0 994.3 993.4
12 16.03 В 3
{4}
н/о н/о +3.1 +0.7 84 -1 -1 994.5 993.6
13 16.03 В 4
{5}
н/о н/о +3.1 +0.7 84 -2 -2 994.7 993.8
14 16.03 В 4
{5}
н/о н/о +3.2 +0.8 84 -1 -1 994.4 993.5
15 16.03 В 4
{5}
н/о н/о +3.3 +0.9 84 -1 -1 994.0 993.1
16 16.03 СВ 4
{5}
н/о н/о +3.1 +0.7 84 -2 -2 993.9 993.0
17 16.03 СВ 5
{6}
н/о н/о +3.0 +0.6 84 -2 -2 993.2 992.3
18 16.03 СВ 5
{6}
н/о н/о +3.0 +1.4 89 -2 -2 993.0 992.1 +1.8 +3.4
19 16.03 СВ 5
{6}
н/о н/о +3.1 +1.5 89 -2 -2 992.4 991.5
20 16.03 ЮВ 3
{6}
н/о н/о +3.9 +2.6 91 0 0 991.4 990.5
21 16.03 ЮВ 5
{6}
н/о н/о +4.3 +3.0 91 -1 -1 990.6 989.7
22 16.03 ЮВ 6
{12}
н/о н/о +3.7 +2.1 89 -2 -2 989.8 988.9
23 16.03 ЮВ 9
{12}
н/о н/о +3.1 +1.5 89 -4 -4 988.1 987.2
00 17.03 ЮВ 10
{13}
н/о н/о +3.1 +1.6 90 -4 -4 986.4 985.5
01 17.03 В 12
{15}
н/о н/о +2.7 +1.2 90 -5 -5 984.1 983.2
02 17.03 В 14
{16}
н/о н/о +2.7 +1.2 90 -6 -6 981.7 980.8
03 17.03 В 15
{19}
н/о н/о +2.3 +1.0 91 -6 -6 979.2 978.3
04 17.03 ЮВ 15
{19}
н/о н/о +2.9 +1.6 91 -6 -6 976.7 975.8
05 17.03 ЮЗ 14
{19}
н/о н/о +5.2 +3.2 87 -2 -2 976.0 975.1
06 17.03 ЮЗ 12
{19}
н/о н/о +5.2 +2.4 82 -2 -2 976.4 975.5 +2.1 +5.2
07 17.03 Ю 13
{17}
н/о н/о +5.2 +2.2 81 -2 -2 976.0 975.1
08 17.03 Ю 15
{20}
н/о н/о +4.1 +1.8 85 -4 -4 975.5 974.6
09 17.03 Ю 16
{22}
н/о н/о +5.4 +2.8 83 -2 -2 974.6 973.7
10 17.03 Ю 17
{24}
н/о н/о +5.3 +2.5 82 -2 -2 973.5 972.6
11 17.03 Ю 19
{26}
н/о н/о +4.8 +2.5 85 -4 -4 972.6 971.7
12 17.03 ЮЗ 17
{26}
н/о н/о +5.1 +2.5 83 -3 -3 972.1 971.2
13 17.03 ЮЗ 16
{22}
н/о н/о +5.2 +2.7 84 -2 -2 972.0 971.1
14 17.03 ЮЗ 15
{21}
н/о н/о +5.3 +2.7 83 -2 -2 971.9 971.0
15 17.03 ЮЗ 16
{21}
н/о н/о +5.4 +2.6 82 -2 -2 972.1 971.2
16 17.03 ЮЗ 15
{20}
н/о н/о +5.3 +2.3 81 -2 -2 972.4 971.5
17 17.03 ЮЗ 14
{20}
н/о н/о +5.2 +2.4 82 -2 -2 973.2 972.3
18 17.03 ЮЗ 12
{22}
н/о н/о +5.0 +2.0 81 -2 -2 973.8 972.9 +4.1 +5.6
19 17.03 ЮЗ 12
{15}
н/о н/о +4.7 +1.6 80 -2 -2 974.5 973.6
20 17.03 З 9
{13}
н/о н/о +4.6 +0.8 76 -2 -2 975.4 974.5
21 17.03 З 6
{11}
н/о н/о +3.7 +0.8 81 -2 -2 976.4 975.5
22 17.03 СЗ 5
{7}
н/о н/о +3.4 +1.1 85 -2 -2 977.5 976.6
23 17.03 СЗ 8
{10}
н/о н/о +3.0 +1.1 87 -4 -4 978.8 977.9
00 18.03 С 9
{15}
н/о н/о +2.7 +0.9 88 -4 -4 980.2 979.3
01 18.03 С 10
{14}
н/о н/о +3.1 +0.3 82 -4 -4 981.9 981.0
02 18.03 С 12
{16}
н/о н/о +2.8 +0.1 82 -5 -5 983.4 982.5
03 18.03 С 13
{18}
н/о н/о +2.6 -0.8 78 -5 -5 984.9 984.0
04 18.03 С 13
{18}
н/о н/о +2.8 -1.4 74 -5 -5 986.8 985.9
05 18.03 С 11
{17}
н/о н/о +2.9 -2.6 67 -4 -4 988.6 987.7
06 18.03 С 12
{18}
н/о н/о +3.0 -2.5 67 -4 -4 990.4 989.5 +2.5 +5.0
07 18.03
{17}
н/о н/о +3.2 -3.1 63 992.0 991.1
08 18.03
{19}
н/о н/о +3.5 -3.1 62 993.7 992.8
09 18.03 С 11
{17}
н/о н/о +4.0 -2.8 61 -3 -3 995.2 994.3
10 18.03
{16}
н/о н/о +4.5 -1.7 64 996.9 996.0
11 18.03 С 9
{16}
н/о н/о +4.7 -1.7 63 -1 -1 998.3 997.4
12 18.03 С 11
{19}
н/о н/о +5.4 -1.7 60 -1 -1 999.4 998.5
13 18.03 С 11
{15}
н/о н/о +5.7 -1.0 62 -0 -0 1000.8 999.9
14 18.03 С 8
{14}
н/о н/о +5.8 -0.9 62 +1 +1 1002.2 1001.3
15 18.03 С 7
{10}
н/о н/о +5.9 -0.6 63 +1 +1 1003.4 1002.5
16 18.03 С 8
{10}
н/о н/о +5.7 -0.8 63 +1 +1 1005.0 1004.1
17 18.03 С 9
{14}
н/о н/о +5.6 -2.7 55 0 0 1006.7 1005.8
18 18.03 С 7
{15}
н/о н/о +5.2 -4.1 51 0 0 1008.4 1007.5 +3.0 +6.0
19 18.03 С 6
{9}
н/о н/о +4.5 -3.5 56 -0 -0 1010.1 1009.1
20 18.03
{7}
н/о н/о +4.2 -3.5 57 1011.2 1010.2
21 18.03 СЗ 6
{9}
н/о н/о +3.8 -4.1 56 -1 -1 1012.4 1011.4
22 18.03 СЗ 5
{8}
н/о н/о +3.5 -5.1 53 -1 -1 1013.6 1012.6
23 18.03 С 5
{8}
н/о н/о +3.5 -5.4 52 -1 -1 1014.4 1013.4
00 19.03 СЗ 5
{9}
н/о н/о +2.6 -4.8 58 -2 -2 1015.3 1014.3
01 19.03 СЗ 5
{7}
н/о н/о +2.2 -4.9 59 -3 -3 1015.9 1014.9
02 19.03 СЗ 6
{8}
н/о н/о +1.9 -5.2 59 -4 -4 1016.6 1015.6
03 19.03 СЗ 7
{9}
н/о н/о +1.8 -4.7 62 -4 -4 1017.2 1016.2
04 19.03 СЗ 7
{8}
н/о н/о +1.7 -5.2 60 -4 -4 1018.1 1017.1
05 19.03 СЗ 6
{8}
н/о н/о +1.6 -5.3 60 -4 -4 1018.7 1017.7
06 19.03 СЗ 5
{9}
н/о н/о +1.6 -5.5 59 -4 -4 1019.5 1018.5 +1.5 +5.2
07 19.03 СЗ 4
{6}
н/о н/о +2.0 -6.5 53 -2 -2 1020.1 1019.1
08 19.03 С 2
{5}
н/о н/о +3.1 -5.0 55 +1 +1 1020.6 1019.6
09 19.03 С 2
{5}
н/о н/о +3.4 -3.6 60 +1 +1 1021.5 1020.5
10 19.03 З 1
{3}
н/о н/о +4.4 -3.8 55 +4 +4 1021.9 1020.9
11 19.03 Ю 2
{2}
н/о н/о +5.6 -2.9 54 +4 +4 1021.9 1020.9
12 19.03 ЮЗ 4
{6}
н/о н/о +5.2 -3.6 53 +2 +2 1022.0 1021.0
13 19.03 ЮЗ 4
{5}
н/о н/о +5.5 -1.0 63 +2 +2 1021.8 1020.8
14 19.03 ЮЗ 6
{8}
н/о н/о +5.6 -2.4 56 +1 +1 1021.6 1020.6
15 19.03 ЮЗ 6
{8}
н/о н/о +5.3 -0.3 67 +1 +1 1021.4 1020.4
16 19.03 ЮЗ 6
{7}
н/о н/о +5.2 +0.4 71 0 0 1021.4 1020.4
17 19.03 ЮЗ 7
{9}
н/о н/о +4.6 +0.8 76 -1 -1 1021.1 1020.1
18 19.03 ЮЗ 7
{9}
н/о н/о +4.5 +0.7 76 -1 -1 1021.0 1020.0 +1.6 +6.0
19 19.03 ЮЗ 7
{8}
н/о н/о +4.6 +1.6 81 -1 -1 1020.9 1019.9
20 19.03 Ю 5
{9}
н/о н/о +4.9 +2.6 85 0 0 1020.4 1019.4
21 19.03 ЮЗ 9
{11}
н/о н/о +5.3 +0.9 73 -1 -1 1019.6 1018.6
22 19.03 ЮЗ 13
{16}
н/о н/о +5.2 +0.8 73 -2 -2 1019.1 1018.1
23 19.03 ЮЗ 13
{16}
н/о н/о +5.1 +1.6 78 -2 -2 1018.9 1017.9
00 20.03 ЮЗ 12
{16}
н/о н/о +5.1 +2.8 85 -2 -2 1018.8 1017.8
01 20.03 ЮЗ 14
{17}
н/о н/о +5.2 +3.2 87 -2 -2 1017.6 1016.6
02 20.03 ЮЗ 11
{16}
н/о н/о +5.4 +3.7 89 -1 -1 1017.3 1016.3
03 20.03 ЮЗ 13
{18}
н/о н/о +5.5 +4.0 90 -2 -2 1016.1 1015.1
04 20.03 ЮЗ 12
{18}
н/о н/о +5.5 +4.2 91 -1 -1 1016.0 1015.0
05 20.03 ЮЗ 13
{15}
н/о н/о +5.3 +4.1 92 -2 -2 1015.7 1014.7
06 20.03 ЮЗ 11
{18}
н/о н/о +5.2 +4.2 93 -2 -2 1015.4 1014.4 +4.5 +5.6
07 20.03 З 7
{14}
н/о н/о +5.2 +4.2 93 -0 -0 1016.3 1015.3
08 20.03 З 7
{9}
н/о н/о +4.9 +3.9 93 -1 -1 1016.6 1015.6
09 20.03 З 3
{8}
н/о н/о +5.3 +4.1 92 +2 +2 1017.5 1016.5
10 20.03 З 6
{9}
н/о н/о +7.5 +1.8 67 +3 +3 1018.1 1017.1
11 20.03 ЮЗ 8
{10}
н/о н/о +7.4 +2.5 71 +3 +3 1018.8 1017.8
12 20.03 ЮЗ 6
{14}
н/о н/о +7.1 +2.4 72 +3 +3 1019.8 1018.8
13 20.03 ЮЗ 10
{14}
н/о н/о +7.5 +3.2 74 +2 +2 1019.3 1018.3
14 20.03 ЮЗ 8
{11}
н/о н/о +6.9 +3.2 77 +2 +2 1019.8 1018.8
15 20.03 ЮЗ 10
{11}
н/о н/о +7.7 +2.0 67 +3 +3 1020.2 1019.2
16 20.03 ЮЗ 10
{13}
н/о н/о +7.5 +1.8 67 +2 +2 1020.4 1019.4
17 20.03 З 10
{12}
н/о н/о +7.3 +1.8 68 +2 +2 1020.9 1019.9
18 20.03 З 10
{14}
н/о н/о +6.5 +2.2 74 +1 +1 1021.5 1020.5 +4.9 +8.6
19 20.03 З 8
{11}
н/о н/о +6.7 +1.8 71 +2 +2 1021.9 1020.9
20 20.03 ЮЗ 8
{11}
н/о н/о +6.0 +2.1 76 +1 +1 1021.9 1020.9
21 20.03 З 9
{12}
н/о н/о +6.0 +1.9 75 0 0 1021.6 1020.6
22 20.03 З 7
{11}
н/о н/о +6.1 +1.6 73 +1 +1 1021.4 1020.4
23 20.03 З 9
{12}
н/о н/о +6.1 +2.2 76 +1 +1 1021.0 1020.0
00 21.03 ЮЗ 8
{12}
н/о н/о +5.9 +2.7 80 0 0 1020.6 1019.6
01 21.03 ЮЗ 8
{10}
н/о н/о +5.6 +3.6 87 -0 -0 1019.9 1018.9
02 21.03 ЮЗ 13
{16}
н/о н/о +5.6 +4.4 92 -1 -1 1018.5 1017.5
03 21.03 ЮЗ 12
{16}
н/о н/о +5.8 +4.6 92 -1 -1 1017.7 1016.7
04 21.03 ЮЗ 12
{15}
н/о н/о +5.9 +4.9 93 -1 -1 1017.3 1016.3
05 21.03 ЮЗ 15
{17}
н/о н/о +5.8 +4.8 93 -2 -2 1016.3 1015.3
06 21.03 ЮЗ 15
{18}
н/о н/о +5.7 +4.8 94 -2 -2 1016.2 1015.2 +5.4 +7.4
07 21.03 ЮЗ 14
{17}
н/о н/о +5.6 +4.7 94 -2 -2 1016.3 1015.3
08 21.03 ЮЗ 13
{17}
н/о н/о +5.7 +5.0 95 -1 -1 1016.4 1015.4
09 21.03 ЮЗ 12
{15}
н/о н/о +6.2 +5.3 94 -0 -0 1016.9 1015.9
10 21.03 ЮЗ 11
{13}
н/о н/о +6.8 +5.4 91 +1 +1 1017.2 1016.2
11 21.03 ЮЗ 9
{13}
н/о н/о +7.2 +5.2 87 +2 +2 1017.7 1016.7
12 21.03 ЮЗ 11
{17}
н/о н/о +7.3 +5.1 86 +2 +2 1017.9 1016.9
13 21.03 ЮЗ 12
{14}
н/о н/о +7.7 +5.2 84 +2 +2 1017.8 1016.9
14 21.03 ЮЗ 12
{14}
н/о н/о +7.6 +5.1 84 +2 +2 1017.5 1016.6
15 21.03 ЮЗ 9
{13}
н/о н/о +7.9 +5.0 82 +3 +3 1018.4 1017.5
17 21.03 З 10
{12}
н/о н/о +10.1 +2.5 59 +6 +6 1020.5 1019.6
18 21.03 З 6
{14}
н/о н/о +8.5 +1.9 63 +5 +5 1022.3 1021.3 +5.5 +10.1
19 21.03 СЗ 8
{9}
н/о н/о +9.3 -0.6 50 +6 +6 1024.1 1023.2
20 21.03 СЗ 7
{9}
н/о н/о +8.3 -0.9 52 +4 +4 1025.4 1024.4
21 21.03 СЗ 7
{11}
н/о н/о +7.5 -2.2 50 +3 +3 1026.1 1025.1
22 21.03 СЗ 8
{10}
н/о н/о +6.9 -1.7 54 +2 +2 1027.7 1026.7
23 21.03 С 6
{8}
н/о н/о +5.8 -0.7 63 +1 +1 1028.7 1027.7
01 22.03 СЗ 2
{5}
н/о н/о +4.7 -1.5 64 +2 +2 1030.1 1029.1
02 22.03 СВ 1
{4}
н/о н/о +4.4 -2.0 63 +3 +3 1029.7 1028.7
03 22.03 СВ 2
{2}
н/о н/о +4.1 -0.1 74 +2 +2 1029.6 1028.6
04 22.03 В 2
{2}
н/о н/о +3.6 +0.7 81 +1 +1 1030.1 1029.1
05 22.03 В 3
{3}
н/о н/о +3.6 +1.2 84 -0 -0 1029.9 1028.9
06 22.03 ЮВ 3
{5}
н/о н/о +3.8 +1.4 84 0 0 1030.8 1029.8 +3.5 +9.3
07 22.03 ЮВ 3
{3}
н/о н/о +4.4 +1.8 83 +1 +1 1031.1 1030.1
08 22.03 ЮВ 4
{5}
н/о н/о +4.4 +1.4 81 0 0 1030.9 1029.9
09 22.03 ЮВ 6
{7}
н/о н/о +4.9 +1.9 81 -0 -0 1030.0 1029.0
10 22.03 Ю 10
{12}
н/о н/о +4.9 +2.9 87 -2 -2 1029.0 1028.0
11 22.03 Ю 11
{13}
н/о н/о +4.8 +3.2 89 -2 -2 1028.7 1027.7
12 22.03 Ю 11
{13}
н/о н/о +5.2 +3.4 88 -2 -2 1028.0 1027.0
13 22.03 Ю 12
{14}
н/о н/о +5.3 +3.5 88 -2 -2 1026.8 1025.8
14 22.03 Ю 10
{14}
н/о н/о +5.3 +3.6 89 -1 -1 1025.6 1024.6
15 22.03 Ю 12
{15}
н/о н/о +5.0 +3.2 88 -2 -2 1024.6 1023.6

 

Местоположение метеостанции Маяк Ferder (Норвегия): широта 59.03 долгота 10.53 высота над уровнем моря 6 м.

В архиве по умолчанию представлена погода на Маяке Ferder за последнюю неделю. Архивные данные за месяц целиком и за предыдущие месяцы, начиная с января 2011 года, Вы можете получить, выбрав интересующий диапазон дат из раскрывающегося списка и нажав кнопку "Ввод!".


*Определитесь, кто Вы:
робот инопланетянин человек

Внимание! Время в таблицах - всемирное. Для получения местного времени необходимо прибавить поправку, которая равна 1 ч.

Смотрите также архив погоды в соседних городах и на ближайших метеорологических станциях:

Погода на Маяке Stromtangen (Норвегия) (22 км)
Погода на Маяке Svenner (Норвегия) (23 км)
Погода в Мелсоме (Норвегия) (25 км)
Погода в Нордкостере (Швеция) (31 км)
Погода в Рюгге (Норвегия) (42 км)
Погода в Сарпсборге (Норвегия) (44 км)
Погода на Гуллхолмене (Норвегия) (45 км)
Погода в Порсгрунне (Норвегия) (50 км)
Погода в Йомфрулянде (Норвегия) (58 км)
Погода на Вадероарна (Швеция) (59 км)

Пояснения к столбцам:

Ветер - указаны скорость ветра в м/с - средняя за 10 мин, порывы в срок и между сроками (в фигурных скобках) и направление, откуда дует ветер: С - северный, СВ - северо-восточный, В - восточный, ЮВ - юго-восточный, Ю - южный, ЮЗ - юго-западный, З - западный, СЗ - северо-западный.
Видимость - горизонтальная дальность видимости в метрах или километрах. При видимости от 1 до 10 км при отсутствии осадков обычно наблюдается дымка, при ухудшении видимости до 1 км и менее - туман. В сухую погоду видимость может ухудшаться дымом, пылью или мглою.
Явления - указаны атмосферные явления, наблюдавшиеся в срок или в последний час перед сроком; фигурными скобками обозначены явления, наблюдавшиеся между сроками (за 1-3 часа до срока); квадратными скобками обозначены град или гололедные отложения с указанием их диаметра в мм.
Облачность - указаны через наклонную черту общая и нижняя облачность в баллах и высота нижней границы облаков в метрах; квадратными скобками обозначены формы облаков: Ci - перистые, Cs - перисто-слоистые, Cc - перисто-кучевые, Ac - высококучевые, As - высокослоистые, Sc - слоисто-кучевые, Ns - слоисто-дождевые, Cu - кучевые, Cb - кучево-дождевые. Подробнее классификацию облаков см. в Атласе облаков (PDF).
T - Температура воздуха - температура, измеренная на высоте 2 м над землей.
Td - Температура точки росы - температура, при понижении до которой содержащийся в воздухе водяной пар достигнет насыщения.
f - Относительная влажность воздуха - влажноcть воздуха, измеренная на высоте 2 м над землей.
Te - Эффективная температура - температура, которую ощущает одетый по сезону человек в тени. Характеристика душности погоды. При расчете учитывается влияние влажности воздуха и скорости ветра на теплоощущения человека.
Tes - Эффективная температура на солнце - температура, которую ощущает человек, с поправкой на солнечный нагрев. Характеристика знойности погоды. Зависит от высоты солнца над горизонтом, облачности и скорости ветра. Ночью, в пасмурную погоду, а также при ветре 12 м/с и более поправка равна нулю.
P - Атмосферное давление - приведенное к уровню моря атмосферное давление.
Po - Атмосферное давление - измеренное на уровне метеостанции атмосферное давление.
Tmin - Минимальная температура - минимум температуры воздуха на высоте 2 м над землей.
Tmax - Максимальная температура - максимум температуры воздуха на высоте 2 м над землей.
R - Количество осадков - Количество выпавших осадков за период времени, мм. При наведении курсора мыши на число - период времени, за который выпало указанное количество осадков.
R24 - Количество осадков - Количество выпавших осадков за 24 часа, мм.
S - Снежный покров - Высота снежного покрова, см. При наведении курсора мыши на число - состояние снежного покрова и степень покрытия местности в баллах.